Temperature
21 20 20 20 20 19 19 18 18 18 18 18 18 17 17 17 17 17 17 17 17 17 17 17 17 17 17 17 17 17 17 17 17 17 17 17 17 17 17 17 17 16 16
20 20 20 19 19 19 19 18 18 18 18 18 18 18 18 17 17 17 17 17 17 17 17 17 17 17 17 17 17 17 17 17 17 17 17 17 17 17 17 17 17 17 16
20 20 19 19 19 19 19 18 18 18 18 18 18 17 17 17 17 17 17 17 17 17 17 17 17 17 17 17 16 16 17 17 17 17 17 17 17 17 17 17 17 17 17
20 20 20 19 19 19 19 18 18 18 18 18 18 18 17 17 17 17 17 17 17 17 17 17 17 17 17 16 16 16 16 16 16 17 17 17 17 17 17 17 17 17 17
20 20 20 19 19 19 18 18 18 17 17 17 17 17 17 17 17 17 17 17 17 17 17 17 17 16 16 16 16 16 16 16 16 17 17 17 17 17 17 17 17 17 17
20 20 19 19 18 18 18 18 17 17 17 17 17 17 17 17 17 17 17 17 17 17 17 17 16 16 16 16 16 16 16 16 16 16 16 17 17 17 17 17 17 17 17
20 19 19 18 18 18 18 17 17 17 17 17 17 17 17 17 17 17 17 17 17 17 17 17 16 16 16 16 16 16 16 16 16 16 16 16 17 17 17 17 17 17 17
20 20 19 18 18 18 18 17 17 17 17 17 17 17 17 17 17 17 17 17 17 17 17 17 16 16 16 16 16 16 16 16 16 16 16 16 16 17 17 17 17 17 17
20 20 19 19 18 18 18 18 17 17 17 17 17 17 17 17 17 17 17 17 17 17 17 16 16 16 16 16 16 16 16 16 16 16 16 16 16 16 16 16 16 16 16
20 20 19 19 18 18 18 17 17 17 17 17 17 17 17 17 17 17 17 17 17 17 17 16 16 16 16 16 16 16 16 16 16 16 16 16 16 16 16 16 16 16 16
20 19 19 19 18 18 18 17 17 17 17 17 17 17 17 17 17 17 17 17 17 17 17 17 16 16 16 16 16 16 16 16 16 16 16 16 16 16 16 16 16 16 16
20 19 19 18 18 18 17 17 17 17 17 17 17 17 17 17 17 17 17 17 17 16 16 16 16 16 16 16 16 16 16 16 16 16 16 16 15 15 15 15 15 15 15
20 19 19 18 18 18 18 17 17 17 17 17 17 17 17 17 17 17 17 17 16 16 16 16 16 16 16 16 16 16 16 15 15 15 15 15 15 15 15 15 15 15 15
19 19 19 18 18 18 18 17 17 17 17 17 17 17 17 17 17 17 16 16 16 16 16 16 16 16 16 16 15 15 15 15 15 15 15 15 15 15 15 15 15 15 14
19 19 19 19 18 18 18 18 17 17 17 17 17 17 17 17 16 16 16 16 16 16 16 16 16 16 15 15 15 15 15 15 15 14 14 14 14 14 14 14 14 14 14
19 19 19 19 19 18 18 18 18 17 17 17 17 17 17 16 16 16 16 16 16 16 16 16 15 15 15 15 15 15 15 15 14 14 14 14 14 13 13 13 13 13 13
19 19 19 19 19 19 19 18 18 17 17 17 17 16 16 16 16 16 16 16 15 15 15 15 15 15 15 15 15 14 14 14 14 14 13 13 13 13 13 12 12 12 12
19 19 19 19 19 19 19 18 18 17 17 17 17 16 16 16 16 16 16 15 15 15 15 14 14 14 14 14 14 14 14 13 13 13 12 12 12 12 12 12 11 11 11
19 19 19 19 19 18 18 18 18 17 17 17 16 16 16 16 16 15 15 15 15 14 14 14 13 13 13 13 13 13 13 13 12 12 12 11 11 11 11 11 10 10 10
19 19 19 19 18 18 18 18 18 17 17 17 16 16 16 16 15 15 15 14 14 13 13 13 12 12 12 12 12 12 12 12 11 11 11 10 10 10 9 9 9 9 8
18 18 18 18 18 17 17 17 17 17 16 16 16 15 15 15 15 14 14 13 13 13 12 12 12 12 12 12 11 11 11 11 10 10 10 9 9 8 8 8 8 7 7
17 17 17 17 17 17 17 17 16 16 15 15 15 15 14 14 14 13 13 12 12 12 12 11 11 11 11 10 10 10 10 9 9 9 8 8 7 7 7 7 6 6 6
16 16 16 15 15 16 16 16 15 15 15 14 14 14 13 13 12 12 12 12 12 11 11 11 10 10 10 9 9 9 9 8 8 8 7 7 7 6 6 6 5 5 5
15 14 15 14 14 14 14 14 14 14 14 13 13 12 12 12 12 11 11 11 11 10 10 10 9 9 8 8 8 8 7 7 7 7 6 6 6 6 5 5 5 5 4
14 14 14 14 13 13 13 13 13 13 12 12 12 11 11 11 11 10 10 10 10 10 9 9 8 8 8 7 7 7 7 6 6 6 6 6 5 5 5 4 4 4 4
12 12 12 12 12 12 12 12 12 12 12 11 11 11 10 10 10 10 9 9 8 8 8 8 7 7 7 6 6 6 6 6 6 5 5 5 4 4 4 4 3 3 3
Wind_Speed
6 8 10 12 12 12 12 13 14 13 12 9 8 7 6 6 6 6 9 10 10 10 8 4 4 4 5 5 5 4 3 2 2 3 3 3 2 1 2 3 4 6 11
8 9 9 10 11 12 13 13 14 14 12 10 8 6 6 5 5 5 7 10 9 9 8 6 5 5 5 5 4 4 3 1 2 3 3 2 4 3 2 2 4 4 6
14 12 11 10 11 12 14 14 13 13 11 10 7 6 5 4 3 4 5 6 9 9 8 7 5 5 5 5 4 4 5 2 1 2 4 3 3 2 3 2 3 3 4
11 12 12 11 11 11 12 12 12 11 11 10 10 11 8 6 6 5 5 5 7 8 9 8 7 5 5 5 4 4 4 4 2 0 0 2 4 3 1 3 2 3 4
10 11 11 11 10 10 11 11 11 10 10 10 10 10 7 5 5 5 6 5 4 6 8 8 6 5 5 5 5 5 4 4 3 2 1 1 1 2 2 2 3 3 3
9 10 9 8 8 9 9 10 11 9 10 10 10 9 10 9 8 7 7 5 4 4 6 7 6 5 5 5 5 5 6 4 3 3 2 2 2 1 2 2 3 3 4
10 11 11 10 10 10 10 10 11 10 10 10 10 9 10 11 11 9 8 7 4 4 5 5 5 5 5 5 5 5 5 4 4 3 2 2 2 2 3 3 1 2 3
11 12 12 12 11 11 11 11 11 10 10 10 10 9 9 8 7 8 7 7 6 5 6 6 6 6 6 6 5 4 4 4 3 3 3 2 1 2 3 3 3 1 3
12 12 12 11 11 11 11 11 12 10 10 10 9 9 9 9 9 8 7 6 6 6 7 7 6 6 6 6 5 4 3 3 3 2 2 1 1 1 1 2 3 4 1
10 11 11 11 10 10 10 10 10 11 9 9 9 9 8 9 9 9 9 8 8 7 8 7 7 6 6 6 5 4 3 4 3 2 2 1 0 1 1 1 2 3 4
11 11 10 11 10 9 10 9 9 9 8 9 8 8 8 8 8 8 9 9 8 8 9 8 8 7 6 6 5 4 4 4 2 2 2 1 1 0 1 1 1 1 3
9 10 10 10 10 10 9 9 9 9 9 9 9 8 8 8 8 8 8 9 9 8 8 8 7 7 6 6 6 5 4 4 3 2 2 1 1 1 0 1 1 0 1
9 9 9 10 10 10 10 10 9 9 8 9 9 9 8 8 8 8 7 8 8 7 7 7 7 6 5 5 5 5 4 4 4 3 3 1 2 1 0 1 1 1 1
10 11 11 10 10 10 9 9 9 9 9 9 9 9 9 9 8 8 7 7 8 7 7 6 6 5 5 5 4 5 4 4 3 3 3 3 3 2 1 1 1 1 1
11 12 13 11 10 10 9 9 9 9 9 10 9 9 8 8 8 8 8 7 7 7 6 6 6 5 4 3 4 4 5 5 4 4 4 4 5 5 3 2 2 2 2
12 11 13 13 12 12 12 11 10 10 9 10 9 8 8 8 8 8 8 8 7 6 6 6 6 5 3 4 5 5 5 5 6 6 6 6 8 8 8 9 8 5 3
10 11 11 11 11 12 13 12 11 10 10 10 9 8 8 8 8 9 9 8 8 8 8 7 8 7 5 7 8 9 8 8 7 6 6 6 7 7 6 8 10 10 10
8 9 9 9 9 9 9 10 10 10 11 10 10 10 10 10 9 10 10 9 9 9 8 9 9 9 9 11 13 14 11 10 9 8 7 7 7 7 6 6 7 6 6
6 7 7 7 7 8 10 11 10 10 11 10 10 10 11 11 11 11 10 10 11 11 9 9 10 11 10 13 14 14 10 10 10 8 8 8 7 9 9 7 6 6 6
5 6 7 7 7 8 10 11 11 10 10 10 10 10 11 12 12 12 12 11 12 12 12 12 10 11 10 12 14 12 9 9 7 7 7 9 8 9 9 6 5 6 5
6 7 8 7 6 7 10 11 10 9 9 10 11 11 11 12 13 12 12 13 14 14 13 13 10 10 11 12 14 12 7 7 6 5 4 4 7 8 8 6 4 3 3
7 8 9 8 6 8 12 12 10 9 11 12 13 12 11 11 12 13 13 13 14 14 12 12 11 8 9 11 12 14 12 8 6 4 2 3 6 8 8 6 6 8 7
8 7 9 10 8 8 11 14 11 12 14 14 14 13 14 12 12 13 13 12 11 11 10 9 9 7 6 8 12 13 12 10 6 3 5 6 8 8 7 9 10 8 6
9 9 11 13 11 10 11 12 12 13 16 16 14 13 14 13 12 10 9 10 9 10 10 9 8 6 5 5 5 5 6 7 6 5 6 8 10 8 8 8 7 6 5
9 10 11 13 13 13 13 12 12 15 17 16 14 14 13 13 13 11 9 9 7 8 10 7 7 7 5 3 4 4 4 3 4 4 5 6 6 6 6 5 5 5 5
11 12 13 14 14 14 14 13 12 15 16 15 13 12 11 11 12 13 12 15 12 14 13 10 8 6 6 6 8 9 9 9 8 7 6 5 5 4 4 4 4 4 4
Wind_Direction
160 153 154 155 155 157 162 165 162 159 154 153 153 152 157 159 158 166 165 160 159 158 150 144 135 133 137 145 134 120 110 98 110 81 31 352 345 273 227 206 195 202 208
153 160 159 159 162 163 164 162 163 163 163 162 158 153 151 160 164 161 162 164 162 160 157 145 147 141 135 131 128 123 117 93 122 125 100 21 344 324 271 234 210 209 206
167 169 166 166 165 167 169 167 166 166 163 155 142 133 123 121 134 151 163 170 164 159 154 154 149 145 142 148 153 141 135 133 61 140 141 149 216 285 313 276 238 217 205
172 168 164 164 170 168 162 159 162 163 160 153 152 155 159 163 175 170 167 163 159 157 153 150 148 147 147 154 167 148 139 134 126 360 179 174 159 153 279 315 291 253 227
175 167 162 166 167 161 159 160 161 162 159 158 159 160 160 162 158 154 153 156 159 161 155 150 146 146 149 156 151 137 133 133 139 143 121 74 79 116 148 246 295 305 270
172 162 159 157 163 164 163 163 164 165 164 163 164 165 163 162 159 162 164 162 156 159 158 151 147 149 150 156 153 145 141 139 134 136 126 136 139 165 155 193 246 267 282
171 164 163 169 173 172 170 167 168 170 171 170 172 172 169 167 170 170 170 165 162 168 175 158 154 156 158 155 145 139 141 145 143 147 145 150 164 169 156 149 204 269 294
172 169 172 175 177 175 171 170 173 174 176 177 179 176 173 171 173 173 169 172 175 180 173 162 160 159 157 154 145 143 153 149 151 153 150 156 168 162 158 158 148 48 325
173 172 173 175 176 176 177 177 176 177 181 181 177 175 175 173 174 173 171 172 175 177 167 164 164 164 161 157 150 151 166 153 159 162 151 148 171 122 136 147 151 152 210
173 174 176 176 177 176 175 176 178 182 182 179 177 176 174 173 171 167 170 170 172 169 164 169 170 170 163 157 150 154 164 156 169 169 159 154 191 57 72 121 138 151 166
173 177 177 174 170 167 169 175 177 175 177 175 172 169 169 167 163 166 170 170 169 169 171 174 170 168 165 163 160 170 166 168 180 170 158 198 185 76 26 67 93 126 153
168 168 170 165 165 166 170 175 177 176 175 170 165 166 165 163 162 167 168 166 165 170 168 163 162 168 168 166 164 171 162 163 171 174 153 205 153 121 32 68 53 56 168
159 156 157 163 166 167 169 172 174 172 167 164 162 162 163 163 165 164 162 157 154 156 154 153 158 162 162 161 163 161 162 163 168 166 161 179 135 127 39 68 42 342 42
162 161 162 165 167 168 169 170 171 167 163 162 162 164 167 169 165 155 151 150 149 149 147 147 148 145 144 149 158 158 156 149 139 131 127 115 114 118 98 70 26 39 40
164 168 168 167 167 171 173 172 171 169 166 160 162 166 163 158 153 151 147 143 140 145 143 135 128 127 127 137 142 148 147 138 121 103 92 83 80 75 70 71 55 55 51
167 169 169 170 175 180 179 175 172 172 167 164 164 159 153 149 148 149 143 138 138 133 125 123 120 109 107 113 128 134 125 120 114 104 87 73 59 58 60 63 61 61 66
167 166 168 173 181 184 177 174 171 164 159 159 158 156 152 150 149 146 134 134 132 120 112 110 104 93 79 87 95 105 104 101 99 98 91 76 57 52 58 59 55 48 45
161 165 165 170 176 176 170 164 158 155 157 161 162 159 151 146 142 137 134 130 120 111 106 99 97 88 72 83 90 91 88 86 83 85 87 84 61 51 63 67 56 43 29
158 159 155 150 155 159 162 154 151 153 155 159 158 155 149 143 135 130 126 120 111 104 97 93 91 88 76 82 90 93 91 88 80 77 75 77 67 54 63 66 56 37 15
116 130 133 124 141 153 151 148 151 151 156 155 148 143 139 136 131 129 122 115 111 107 101 91 83 84 80 78 85 92 98 95 88 75 64 62 62 55 59 66 60 38 1
102 115 124 130 143 145 138 135 138 142 142 134 130 127 125 126 125 120 116 116 113 108 102 93 79 71 71 70 75 80 90 100 95 80 60 41 46 52 54 62 66 44 18
101 111 119 121 119 124 127 124 124 123 118 115 115 115 116 118 117 115 113 114 114 109 104 96 83 67 61 66 71 72 78 90 92 83 56 38 47 48 45 48 41 38 41
99 107 113 105 93 98 116 119 118 117 113 107 105 103 99 100 106 111 114 113 113 113 110 104 97 81 61 57 61 65 67 69 74 65 61 60 58 52 44 41 44 44 45
97 105 108 104 95 90 94 104 109 111 109 106 102 99 99 95 92 94 103 112 115 118 116 112 108 96 73 55 49 51 55 50 50 49 52 59 60 56 46 42 42 41 42
98 100 103 104 103 100 97 98 103 106 104 102 102 99 97 97 90 82 77 91 91 117 123 122 123 117 101 79 85 78 59 50 52 64 59 54 52 48 42 36 32 30 29
100 98 98 101 101 100 98 98 102 107 109 108 106 105 105 103 102 99 84 61 79 90 98 110 115 100 108 99 76 68 69 74 82 80 69 63 60 58 49 39 22 16 13
Height
1482 1485 1487 1488 1490 1493 1496 1499 1502 1507 1511 1515 1519 1523 1526 1530 1533 1537 1539 1542 1544 1546 1548 1551 1553 1555 1556 1558 1560 1562 1564 1565 1567 1568 1569 1570 1571 1571 1572 1572 1572 1573 1574
1480 1483 1486 1487 1488 1491 1494 1497 1500 1504 1509 1513 1517 1521 1525 1529 1532 1535 1538 1540 1543 1545 1547 1549 1551 1553 1555 1557 1559 1561 1563 1564 1566 1567 1568 1569 1571 1570 1571 1571 1571 1572 1572
1475 1479 1483 1486 1488 1490 1492 1495 1499 1503 1507 1511 1515 1519 1523 1527 1531 1534 1536 1539 1541 1543 1546 1548 1550 1552 1554 1556 1558 1560 1562 1563 1565 1567 1568 1569 1569 1569 1570 1570 1571 1571 1571
1474 1476 1480 1484 1487 1488 1491 1494 1498 1502 1505 1509 1513 1516 1519 1523 1527 1531 1534 1537 1540 1542 1544 1547 1549 1551 1553 1555 1557 1559 1560 1562 1564 1565 1567 1568 1568 1568 1568 1569 1570 1570 1570
1475 1476 1479 1483 1486 1488 1490 1493 1497 1501 1503 1507 1511 1515 1518 1522 1526 1530 1533 1535 1538 1540 1543 1545 1547 1550 1552 1554 1555 1557 1559 1561 1563 1564 1565 1566 1567 1567 1568 1568 1569 1569 1569
1475 1476 1479 1483 1485 1488 1490 1493 1496 1499 1502 1506 1510 1513 1517 1520 1524 1527 1530 1533 1536 1539 1541 1543 1546 1548 1550 1552 1554 1556 1558 1560 1562 1563 1564 1565 1566 1566 1567 1567 1567 1567 1568
1474 1475 1478 1481 1484 1486 1489 1491 1494 1497 1500 1504 1507 1511 1515 1518 1521 1525 1528 1531 1534 1536 1539 1541 1544 1546 1549 1551 1553 1554 1556 1558 1560 1562 1563 1564 1565 1566 1566 1566 1566 1566 1566
1471 1474 1476 1479 1482 1485 1487 1490 1492 1495 1498 1501 1505 1509 1513 1516 1520 1523 1526 1529 1532 1535 1538 1540 1542 1545 1547 1549 1551 1553 1555 1557 1559 1560 1562 1563 1564 1564 1565 1565 1565 1564 1564
1470 1472 1476 1478 1481 1483 1486 1488 1490 1493 1496 1499 1503 1506 1510 1514 1517 1521 1525 1528 1531 1534 1536 1539 1541 1544 1546 1548 1550 1552 1554 1555 1557 1559 1560 1561 1562 1562 1563 1563 1563 1564 1562
1469 1472 1475 1477 1480 1482 1485 1487 1489 1492 1494 1497 1501 1504 1508 1512 1515 1519 1523 1526 1529 1532 1535 1537 1540 1542 1545 1547 1548 1550 1552 1554 1555 1556 1558 1559 1560 1560 1561 1561 1561 1561 1561
1467 1471 1473 1476 1479 1482 1484 1486 1488 1491 1493 1496 1499 1503 1506 1510 1514 1518 1521 1524 1527 1530 1533 1536 1539 1541 1543 1545 1547 1549 1550 1552 1553 1554 1556 1557 1557 1558 1558 1558 1559 1559 1558
1467 1470 1473 1475 1478 1481 1483 1485 1487 1490 1492 1495 1499 1502 1506 1509 1513 1516 1520 1523 1526 1529 1532 1535 1538 1540 1542 1544 1546 1547 1549 1550 1551 1553 1554 1555 1555 1556 1556 1556 1556 1556 1556
1466 1469 1472 1475 1477 1480 1482 1485 1487 1490 1492 1495 1499 1502 1505 1509 1512 1515 1518 1522 1525 1528 1531 1534 1536 1538 1540 1542 1544 1546 1547 1549 1550 1551 1552 1552 1553 1553 1553 1553 1553 1553 1552
1464 1467 1470 1474 1476 1479 1482 1485 1487 1490 1493 1495 1498 1501 1505 1508 1511 1514 1517 1520 1523 1526 1529 1532 1534 1536 1538 1541 1543 1544 1546 1547 1548 1549 1549 1550 1550 1550 1550 1550 1550 1549 1549
1463 1466 1468 1472 1475 1478 1481 1484 1487 1490 1493 1495 1498 1501 1504 1507 1510 1513 1516 1519 1522 1525 1528 1530 1533 1535 1537 1539 1540 1542 1543 1545 1545 1546 1547 1547 1547 1547 1547 1547 1546 1546 1545
1460 1464 1467 1470 1473 1477 1479 1483 1485 1489 1492 1494 1497 1500 1503 1506 1509 1512 1515 1518 1521 1524 1526 1529 1531 1533 1535 1537 1538 1540 1541 1542 1543 1544 1544 1544 1544 1544 1544 1543 1543 1542 1542
1459 1462 1465 1468 1471 1475 1478 1481 1484 1487 1491 1493 1496 1499 1502 1505 1508 1511 1513 1516 1519 1522 1525 1526 1529 1531 1533 1535 1536 1537 1538 1539 1540 1541 1541 1541 1542 1541 1541 1540 1540 1539 1538
1459 1462 1464 1467 1471 1474 1477 1480 1483 1486 1489 1491 1494 1497 1500 1503 1506 1509 1512 1514 1517 1520 1523 1525 1527 1529 1531 1533 1534 1535 1536 1537 1538 1539 1539 1539 1539 1539 1538 1538 1537 1536 1535
1458 1461 1463 1466 1469 1473 1476 1479 1481 1484 1487 1490 1492 1496 1499 1502 1505 1508 1510 1513 1515 1518 1521 1524 1526 1527 1529 1531 1533 1534 1534 1535 1536 1537 1537 1537 1537 1536 1536 1535 1534 1534 1533
1457 1460 1462 1465 1467 1471 1474 1477 1479 1482 1485 1488 1490 1494 1497 1500 1504 1506 1509 1512 1515 1517 1520 1523 1525 1527 1528 1530 1532 1533 1533 1534 1534 1535 1535 1535 1534 1534 1533 1533 1532 1531 1531
1456 1459 1461 1464 1467 1469 1472 1474 1478 1481 1484 1487 1490 1492 1496 1500 1503 1506 1508 1511 1514 1517 1520 1522 1525 1527 1528 1530 1531 1532 1532 1532 1533 1533 1533 1533 1533 1533 1532 1532 1531 1530 1529
1456 1457 1460 1463 1465 1468 1470 1472 1476 1480 1483 1486 1489 1492 1496 1499 1503 1506 1508 1512 1514 1517 1519 1522 1524 1527 1528 1529 1530 1531 1531 1532 1532 1532 1532 1532 1532 1532 1532 1531 1530 1529 1528
1456 1458 1460 1463 1465 1468 1470 1471 1476 1479 1483 1486 1489 1492 1496 1499 1503 1506 1509 1512 1515 1517 1520 1522 1524 1526 1528 1529 1530 1531 1531 1531 1532 1532 1532 1532 1532 1532 1531 1530 1529 1528 1526
1457 1460 1461 1463 1466 1469 1472 1473 1476 1479 1482 1486 1489 1493 1497 1501 1504 1507 1511 1513 1516 1518 1520 1523 1525 1527 1528 1530 1530 1531 1531 1532 1532 1532 1532 1532 1532 1531 1530 1529 1528 1526 1525
1460 1462 1463 1465 1468 1471 1473 1477 1479 1482 1484 1488 1492 1496 1499 1502 1506 1509 1513 1516 1518 1521 1522 1524 1526 1528 1529 1530 1531 1531 1532 1532 1533 1532 1532 1532 1531 1530 1529 1528 1527 1525 1523
1463 1465 1467 1469 1471 1474 1477 1480 1483 1485 1488 1491 1495 1498 1502 1505 1509 1511 1514 1518 1521 1523 1525 1527 1528 1529 1531 1531 1532 1532 1533 1533 1533 1533 1532 1531 1531 1530 1529 1528 1526 1524 1522